Wind_Speed
19 22 23 25 27 28 30 32 32 32 34 38 36 39 40 38 41 41 42 40 38 38 38 41 42 46 39 37 46 49 50 49 63 68 70 70 67 66 67 67 65 64 60 58
21 23 26 28 29 31 33 36 37 37 38 40 38 36 40 39 40 43 43 42 40 38 37 37 38 36 36 38 35 37 41 44 48 57 62 69 58 59 60 63 67 67 66 63
21 25 28 29 32 35 35 40 41 43 40 39 43 41 41 39 38 40 43 45 43 42 37 37 37 32 33 36 35 32 33 36 38 45 47 57 55 47 54 57 61 67 67 65
24 27 28 32 35 38 37 40 44 45 46 45 42 48 43 44 40 37 42 43 43 44 42 39 39 33 36 34 32 31 32 26 33 41 27 37 46 51 51 54 56 58 65 65
29 31 34 34 38 40 42 43 46 47 48 49 46 45 47 48 39 39 42 43 42 44 44 38 39 35 37 34 31 27 17 21 27 27 18 26 35 46 53 51 47 53 57 60
36 37 39 40 40 42 44 47 49 49 49 50 50 49 48 46 48 43 41 43 45 44 46 43 38 34 33 36 31 30 17 17 20 28 28 27 25 32 44 49 51 51 54 56
41 42 43 44 44 44 47 48 50 50 49 49 49 51 45 45 45 48 48 46 45 46 46 44 38 34 32 27 28 30 22 18 25 30 26 27 24 27 33 36 37 43 53 55
48 47 45 45 45 48 46 46 47 48 49 50 48 50 49 46 47 49 52 50 50 48 41 41 34 26 26 21 29 27 23 21 19 18 19 20 23 26 28 32 32 35 40 45
50 51 48 49 47 45 43 42 45 48 48 49 50 50 47 51 53 49 47 48 44 39 38 36 31 28 29 28 30 27 23 21 20 20 20 22 25 26 27 29 31 31 33 36
48 52 45 47 43 43 46 49 49 48 52 52 50 53 52 49 49 47 42 40 39 35 36 31 32 34 33 29 28 27 24 19 18 18 20 23 24 26 27 30 31 29 27 26
47 49 47 45 45 48 48 50 51 52 52 56 58 56 49 41 40 39 39 39 38 38 39 33 33 34 29 36 35 31 31 27 25 20 18 19 21 23 27 30 30 30 31 28
46 49 48 48 48 49 51 50 49 53 53 54 54 51 41 37 39 35 29 32 34 35 35 40 36 34 41 29 45 36 33 26 27 26 22 22 22 22 25 25 26 31 28 27
49 53 53 55 53 53 55 53 52 52 51 50 46 46 39 32 33 30 29 25 28 26 27 29 33 33 34 39 37 36 32 28 29 24 29 29 24 24 27 25 25 27 26 24
49 52 53 56 55 54 53 47 46 47 49 42 41 39 31 29 28 30 30 35 27 23 20 20 28 26 27 19 29 31 32 29 29 22 25 26 23 22 27 25 25 25 23 20
51 54 55 55 48 46 45 40 39 44 40 35 30 36 32 27 27 27 26 27 23 23 23 21 23 20 18 21 20 27 29 25 23 23 26 26 19 21 29 25 24 19 17 15
56 57 56 50 43 41 39 39 39 33 31 40 36 28 24 28 30 27 28 28 27 27 26 24 23 20 19 24 25 18 21 30 29 29 29 28 18 25 27 24 23 19 16 14
56 53 51 47 41 43 38 35 29 29 27 28 24 24 24 26 28 30 29 32 34 33 33 33 27 29 24 23 31 28 25 29 29 31 30 25 23 28 23 20 19 18 17 13
50 47 45 44 43 39 33 25 27 27 24 22 22 25 22 25 27 28 34 37 38 39 34 31 32 26 25 23 30 30 28 28 29 28 25 24 22 23 18 17 18 17 14 12
46 43 44 42 39 24 22 26 29 23 18 24 26 29 30 33 37 30 37 40 39 36 33 28 23 24 25 26 27 29 29 30 30 27 22 23 20 19 14 13 15 16 13 13
40 41 42 39 29 29 26 28 27 29 27 27 28 31 37 36 38 27 29 30 30 30 29 25 22 21 23 25 27 26 29 32 28 19 22 19 20 14 10 13 13 15 13 14
37 38 34 27 28 24 25 27 30 32 34 33 35 38 38 32 29 22 20 21 24 26 26 26 23 22 23 23 23 24 26 20 19 19 18 18 14 13 11 12 13 15 15 16
38 34 23 24 21 25 27 31 36 36 36 39 40 37 29 24 21 23 21 21 25 25 21 18 15 18 22 23 23 27 21 19 21 19 19 14 15 10 10 14 15 10 15 22
33 26 23 23 24 27 33 40 42 44 42 42 39 32 28 24 24 23 23 26 27 15 8 9 10 11 13 13 14 10 23 23 21 22 20 17 11 6 10 12 12 15 7 19
33 25 25 23 24 28 31 35 40 40 41 37 34 30 29 27 27 27 27 31 18 12 16 18 19 21 19 21 14 14 25 25 26 25 22 13 11 10 9 12 17 5 19 17
33 26 25 24 28 29 33 39 39 37 33 30 29 31 32 31 29 29 31 21 11 14 17 20 18 21 23 21 21 26 30 28 30 26 17 18 14 8 10 14 11 11 20 41
29 27 28 26 29 33 38 40 40 33 28 27 29 30 32 32 32 29 21 14 14 13 17 16 13 15 24 25 29 35 33 33 27 22 22 19 14 10 18 15 51 54 49 45
Wind_Direction
310 310 313 312 311 308 308 309 307 302 297 294 289 288 288 292 292 291 293 294 298 303 305 310 306 308 306 292 277 269 258 258 257 256 258 258 255 247 241 241 240 243 245 245
298 299 303 305 305 304 304 304 304 302 299 298 297 292 289 294 291 292 294 294 296 296 306 311 305 305 301 298 286 275 259 257 255 249 253 259 256 251 246 242 237 238 241 245
295 302 303 302 300 300 302 302 302 301 297 294 295 296 290 287 287 290 292 294 296 297 304 307 301 291 295 302 296 287 272 251 258 258 261 259 256 252 251 245 238 236 236 240
295 296 294 296 297 298 298 297 298 298 297 296 294 294 296 291 295 292 287 290 293 295 301 305 305 282 288 295 295 285 268 248 255 248 274 267 257 249 246 249 246 241 240 238
292 293 295 295 296 295 296 298 297 297 296 296 295 293 293 296 299 290 287 289 288 292 295 295 296 282 280 280 288 285 267 248 248 233 240 249 264 247 249 248 249 247 246 244
296 295 295 296 296 295 296 298 298 298 296 296 296 295 291 293 293 292 290 289 289 289 296 293 288 282 284 268 272 271 258 248 243 246 242 254 257 252 252 253 250 248 248 247
296 297 297 299 300 301 301 300 298 295 295 295 296 294 298 296 297 297 296 293 290 291 295 288 281 274 278 276 247 258 256 248 237 255 250 262 262 251 251 253 252 250 248 250
298 299 303 302 304 304 304 303 301 298 297 295 296 296 298 299 298 297 296 295 294 292 286 282 278 271 249 250 242 245 246 242 243 253 253 254 253 254 253 252 251 251 250 252
301 303 305 307 307 307 305 301 298 296 295 293 295 296 296 300 299 299 294 291 288 285 277 269 268 253 258 248 241 244 246 245 242 246 254 257 256 256 258 261 266 266 264 261
302 302 306 307 309 308 306 304 302 301 300 299 296 294 301 302 303 297 292 288 284 272 262 268 262 246 245 243 233 235 236 246 253 257 263 267 269 270 270 270 269 271 272 275
303 303 308 309 309 307 304 302 301 300 302 303 300 299 306 303 297 292 292 295 293 286 266 264 262 257 251 240 228 238 239 231 236 242 255 258 261 268 273 271 270 270 272 271
301 301 304 307 309 305 302 300 300 300 300 298 301 302 306 303 292 292 292 291 288 288 279 265 256 262 267 223 239 232 233 230 240 243 257 267 270 278 280 280 273 268 268 269
307 307 309 308 308 306 304 303 302 300 299 301 302 307 307 296 288 298 304 304 296 288 281 268 264 271 274 266 210 212 229 234 241 251 256 268 271 274 278 285 280 283 265 265
305 307 308 306 307 304 302 303 302 298 298 304 302 305 297 284 279 289 288 297 301 299 289 276 264 267 270 271 239 206 219 229 240 252 261 274 277 275 281 285 288 290 269 258
305 307 306 306 307 305 307 308 298 295 298 292 306 308 301 283 281 286 283 291 294 293 277 273 267 263 254 254 256 210 223 229 236 252 268 280 267 269 278 282 288 287 270 248
309 309 309 310 311 309 311 307 305 302 295 303 300 302 279 277 293 284 290 288 288 287 282 278 262 265 254 241 253 242 240 232 251 260 267 276 259 251 267 281 284 284 264 244
311 310 310 315 315 313 314 311 308 303 301 306 302 300 301 289 287 283 293 292 290 287 283 276 264 258 261 251 233 240 239 242 249 255 266 276 259 248 265 277 281 280 270 254
312 312 314 318 316 320 319 314 314 307 302 297 295 300 287 285 288 294 299 293 292 291 284 275 268 256 257 250 238 236 242 249 254 257 264 265 257 245 265 275 275 282 271 249
314 314 314 318 322 321 321 309 313 304 296 302 292 291 295 291 292 296 296 291 289 290 289 287 276 266 253 248 247 242 247 252 256 263 262 262 243 244 276 273 275 269 262 245
312 315 321 326 330 326 318 324 325 318 320 311 304 298 299 293 293 298 287 284 286 286 285 281 273 261 254 250 248 246 250 253 257 249 246 245 227 251 259 261 254 251 249 245
316 321 324 328 325 323 323 333 329 325 320 314 310 308 307 308 305 304 296 291 288 286 280 275 267 259 254 245 242 240 241 240 225 222 222 209 210 224 238 245 255 241 244 216
318 325 327 324 329 319 328 336 330 325 322 319 314 310 311 310 308 307 305 302 302 302 291 278 266 255 251 248 241 237 229 213 202 198 186 189 205 208 232 252 239 227 199 157
318 322 322 318 323 317 321 321 322 322 321 316 313 313 311 314 315 314 309 309 308 296 314 287 237 225 211 203 215 237 203 194 190 176 178 196 172 207 215 226 201 172 134 126
313 317 318 310 308 312 319 320 320 320 319 314 310 313 317 319 315 313 309 309 299 283 288 267 244 232 224 214 227 208 183 178 169 174 188 166 158 168 186 201 173 143 153 138
307 309 312 313 311 316 320 321 322 321 315 311 312 315 313 310 307 303 304 306 290 300 280 277 258 238 216 208 190 179 172 168 166 176 163 162 159 182 202 157 102 136 141 126
298 303 306 307 309 318 325 323 323 325 318 314 313 310 307 300 303 304 303 298 302 283 268 265 255 200 183 173 171 167 164 164 161 160 159 150 157 192 132 129 121 117 113 113
Height
5816 5813 5811 5809 5808 5806 5804 5801 5799 5797 5793 5789 5789 5784 5779 5778 5774 5772 5769 5767 5764 5759 5756 5752 5748 5745 5741 5737 5733 5734 5735 5739 5738 5740 5738 5743 5750 5758 5763 5769 5774 5777 5782 5787
5812 5810 5808 5805 5802 5800 5796 5793 5791 5789 5785 5780 5779 5778 5772 5770 5766 5761 5758 5756 5753 5749 5745 5741 5737 5734 5731 5727 5723 5719 5720 5723 5726 5728 5726 5726 5735 5741 5747 5752 5758 5762 5768 5773
5808 5806 5802 5799 5796 5792 5789 5783 5781 5778 5777 5774 5768 5768 5765 5763 5757 5753 5748 5743 5740 5738 5736 5734 5729 5725 5723 5720 5715 5711 5710 5712 5715 5717 5716 5716 5722 5729 5733 5737 5740 5748 5755 5761
5803 5800 5797 5793 5789 5785 5782 5777 5771 5768 5764 5762 5763 5754 5754 5748 5747 5745 5740 5735 5732 5728 5725 5722 5721 5717 5714 5712 5709 5706 5703 5704 5707 5708 5710 5711 5711 5716 5718 5722 5733 5739 5744 5750
5799 5795 5790 5787 5782 5777 5772 5768 5763 5758 5754 5750 5750 5749 5743 5736 5736 5732 5730 5727 5723 5720 5716 5714 5711 5708 5707 5705 5703 5702 5698 5698 5701 5702 5704 5706 5703 5707 5708 5716 5726 5730 5733 5738
5791 5786 5783 5779 5774 5769 5763 5758 5753 5748 5743 5741 5738 5735 5735 5729 5721 5721 5720 5717 5713 5710 5706 5703 5701 5700 5700 5698 5698 5698 5695 5696 5697 5697 5699 5698 5699 5700 5703 5709 5715 5719 5722 5725
5783 5778 5774 5770 5765 5760 5755 5748 5741 5739 5735 5731 5726 5721 5723 5718 5713 5707 5705 5704 5702 5699 5695 5693 5692 5692 5691 5690 5690 5692 5692 5692 5693 5693 5693 5694 5693 5693 5696 5700 5703 5705 5709 5712
5771 5769 5766 5761 5756 5750 5745 5739 5732 5726 5724 5720 5717 5711 5711 5707 5702 5697 5692 5690 5688 5686 5683 5681 5682 5682 5682 5683 5685 5685 5687 5687 5687 5687 5688 5688 5688 5690 5691 5693 5694 5696 5700 5703
5761 5757 5756 5748 5744 5740 5735 5730 5724 5715 5713 5708 5707 5702 5699 5696 5688 5684 5680 5676 5674 5674 5673 5672 5673 5673 5674 5675 5678 5680 5683 5681 5681 5682 5683 5683 5684 5684 5685 5686 5688 5690 5694 5696
5752 5744 5748 5739 5736 5730 5723 5717 5710 5704 5698 5693 5694 5690 5690 5683 5673 5669 5665 5663 5662 5662 5662 5662 5662 5662 5662 5666 5670 5674 5676 5676 5676 5677 5677 5678 5679 5679 5679 5680 5681 5683 5686 5688
5742 5736 5736 5731 5728 5720 5714 5706 5699 5693 5687 5679 5674 5679 5678 5672 5662 5658 5655 5654 5652 5650 5650 5650 5651 5651 5649 5657 5661 5664 5667 5667 5669 5671 5673 5672 5673 5673 5673 5674 5674 5675 5677 5680
5734 5728 5726 5722 5718 5709 5703 5697 5690 5681 5677 5668 5662 5663 5665 5659 5653 5650 5648 5645 5642 5640 5638 5638 5640 5642 5641 5645 5650 5655 5657 5660 5662 5665 5666 5666 5666 5667 5667 5668 5667 5668 5670 5672
5725 5717 5712 5709 5706 5697 5689 5683 5677 5669 5664 5661 5653 5653 5650 5647 5644 5642 5641 5638 5635 5633 5629 5628 5632 5633 5634 5635 5636 5642 5648 5653 5657 5659 5660 5660 5662 5662 5660 5661 5661 5662 5662 5665
5715 5709 5704 5695 5691 5682 5677 5674 5666 5658 5652 5649 5646 5640 5642 5637 5636 5635 5634 5632 5629 5626 5624 5623 5624 5626 5627 5630 5631 5632 5640 5646 5651 5654 5655 5656 5657 5658 5656 5656 5655 5656 5656 5657
5707 5701 5692 5684 5679 5672 5666 5663 5658 5649 5646 5639 5640 5634 5631 5629 5629 5628 5627 5626 5624 5622 5620 5619 5619 5620 5622 5625 5626 5629 5635 5640 5644 5647 5648 5649 5651 5652 5650 5650 5651 5651 5651 5651
5696 5688 5680 5675 5669 5662 5659 5651 5644 5640 5637 5632 5628 5628 5624 5623 5621 5620 5620 5618 5617 5616 5614 5613 5613 5614 5617 5620 5621 5625 5629 5635 5639 5641 5643 5643 5646 5643 5644 5646 5646 5645 5645 5644
5684 5676 5669 5665 5659 5653 5650 5641 5636 5633 5629 5625 5622 5620 5618 5615 5614 5614 5612 5609 5608 5607 5607 5604 5607 5608 5610 5613 5616 5621 5625 5629 5632 5635 5636 5638 5638 5638 5640 5640 5640 5640 5641 5640
5673 5665 5659 5655 5650 5646 5638 5633 5629 5626 5623 5620 5616 5612 5609 5608 5607 5608 5604 5599 5597 5595 5594 5595 5596 5600 5602 5606 5610 5614 5619 5622 5625 5628 5630 5631 5632 5634 5635 5635 5635 5636 5636 5636
5663 5657 5652 5647 5642 5638 5633 5628 5623 5620 5621 5615 5611 5607 5604 5601 5598 5602 5595 5590 5586 5585 5584 5585 5586 5588 5593 5598 5601 5607 5610 5614 5618 5621 5623 5625 5628 5631 5631 5630 5631 5631 5631 5631
5658 5651 5645 5639 5634 5630 5626 5622 5618 5614 5613 5609 5605 5601 5597 5593 5587 5590 5584 5581 5579 5576 5576 5578 5580 5582 5585 5588 5592 5597 5601 5605 5610 5615 5617 5620 5624 5628 5626 5626 5627 5627 5627 5626
5651 5646 5640 5635 5630 5627 5622 5619 5615 5610 5607 5601 5596 5591 5587 5583 5578 5576 5575 5573 5571 5569 5569 5569 5572 5574 5577 5581 5585 5590 5594 5600 5605 5608 5612 5617 5622 5622 5622 5622 5624 5625 5624 5621
5644 5641 5637 5632 5628 5622 5618 5615 5609 5604 5599 5593 5587 5582 5578 5575 5573 5569 5567 5565 5563 5560 5558 5559 5562 5564 5567 5572 5577 5581 5588 5595 5599 5604 5610 5616 5617 5618 5619 5621 5622 5624 5623 5624
5640 5636 5632 5628 5625 5619 5614 5607 5604 5597 5591 5585 5578 5575 5570 5568 5565 5562 5560 5558 5555 5553 5553 5554 5557 5560 5564 5569 5572 5575 5582 5590 5597 5604 5610 5611 5616 5618 5618 5620 5622 5623 5627 5630
5633 5630 5627 5623 5621 5617 5612 5606 5599 5591 5584 5578 5572 5567 5563 5560 5558 5555 5553 5549 5547 5548 5548 5548 5551 5554 5558 5564 5569 5574 5580 5589 5597 5603 5607 5615 5617 5620 5620 5620 5624 5627 5631 5635
5626 5624 5621 5619 5615 5611 5607 5599 5592 5586 5577 5571 5567 5562 5558 5554 5552 5547 5545 5543 5542 5542 5540 5539 5540 5544 5550 5558 5566 5573 5582 5590 5596 5602 5611 5616 5619 5621 5621 5624 5628 5627 5632 5641
5622 5619 5615 5613 5608 5603 5599 5592 5583 5576 5570 5566 5561 5557 5551 5546 5542 5539 5537 5536 5536 5535 5533 5531 5533 5536 5545 5554 5563 5571 5581 5589 5598 5606 5613 5618 5622 5624 5627 5629 5634 5638 5643 5649